Location: Newark
(42.7133°N, 87.7910°W)
Time: 21:42:43
(UTC+00:00)

Explorer 11/Cluster Stage 4 - Visible Passes

Search period start: 18 September 2019 00:00
Search period end: 28 September 2019 00:00
Orbit: 467 x 1260 km, 28.8° (Epoch: 17 September)

Date Brightness Start Highest point End Pass type
(mag) Time Alt. Az. Time Alt. Az. Time Alt. Az.
23 Sep 9.1 01:59:29 10° S 02:00:03 11° S 02:00:03 11° S visible
24 Sep 8.9 01:47:40 10° SSW 01:50:23 14° S 01:50:23 14° S visible
25 Sep 8.7 01:36:05 10° SSW 01:40:35 17° SSE 01:40:38 17° SSE visible
26 Sep 8.6 01:24:38 10° SSW 01:29:45 19° SSE 01:30:49 19° SSE visible
26 Sep 9.4 03:12:34 10° SW 03:12:58 11° SW 03:12:58 11° SW visible
27 Sep 8.5 01:13:18 10° SW 01:18:54 22° S 01:20:55 19° SSE visible
27 Sep 9.2 03:01:29 10° SW 03:03:04 15° SW 03:03:04 15° SW visible
